KC5TXI Weather Reports


time (UTC)temp
C
wind
direction
speed
KPH
gust
KPH
rain 1hr
cm
rain 24hr
cm
rain mn
cm
humidity
%
barometer
mb
20260509211641 34 193 0.0 0.0 0.00 0.00 0.00 39 1009.7
20260509211137 33 84 1.6 1.6 0.00 0.00 0.00 41 1009.6
20260509210635 33 214 0.0 1.6 0.00 0.00 0.00 38 1009.8
20260509210131 33 223 0.0 0.0 0.00 0.00 0.00 40 1009.8
20260509205626 32 207 0.0 0.0 0.00 0.00 0.00 40 1009.8
20260509205121 32 129 0.0 0.0 0.00 0.00 0.00 39 1009.9
20260509204617 33 75 3.2 3.2 0.00 0.00 0.00 40 1009.9
20260509204108 33 54 1.6 1.6 0.00 0.00 0.00 38 1010.1
20260509203604 32 157 0.0 0.0 0.00 0.00 0.00 41 1010.1
20260509203103 32 178 0.0 0.0 0.00 0.00 0.00 41 1010.5
20260509202602 32 95 1.6 1.6 0.00 0.00 0.00 41 1010.6
20260509202053 32 75 1.6 3.2 0.00 0.00 0.00 40 1010.5
20260509201547 32 69 4.8 9.7 0.00 0.00 0.00 42 1010.6
20260509201045 32 282 4.8 4.8 0.00 0.00 0.00 41 1010.7
20260509200539 33 198 0.0 0.0 0.00 0.00 0.00 43 1010.6
20260509200036 33 211 0.0 0.0 0.00 0.00 0.00 45 1010.6
20260509195531 33 334 4.8 8.0 0.00 0.00 0.00 44 1010.7
20260509195026 32 211 0.0 0.0 0.00 0.00 0.00 43 1010.8
20260509194521 33 210 0.0 1.6 0.00 0.00 0.00 45 1010.9
20260509194018 33 92 0.0 1.6 0.00 0.00 0.00 41 1011.0
20260509193513 32 198 1.6 3.2 0.00 0.00 0.00 44 1011.0
20260509193010 31 196 0.0 0.0 0.00 0.00 0.00 47 1011.0
20260509192506 32 225 1.6 1.6 0.00 0.00 0.00 44 1011.1
20260509192001 31 200 0.0 0.0 0.00 0.00 0.00 45 1010.9
20260509191456 31 201 0.0 0.0 0.00 0.00 0.00 47 1011.0
20260509190952 31 101 1.6 3.2 0.00 0.00 0.00 47 1011.1
20260509190449 31 197 0.0 0.0 0.00 0.00 0.00 49 1011.2
20260509185947 32 297 3.2 4.8 0.00 0.00 0.00 48 1011.3
20260509185444 31 255 1.6 1.6 0.00 0.00 0.00 48 1011.2
20260509184941 32 17 4.8 4.8 0.00 0.00 0.00 47 1011.3
20260509184439 32 330 3.2 3.2 0.00 0.00 0.00 46 1011.4
20260509183935 31 332 0.0 0.0 0.00 0.00 0.00 46 1011.3
20260509183429 32 79 4.8 4.8 0.00 0.00 0.00 46 1011.2
20260509182926 31 135 1.6 3.2 0.00 0.00 0.00 49 1011.4
20260509182422 31 216 0.0 0.0 0.00 0.00 0.00 50 1011.4
20260509181920 31 332 1.6 1.6 0.00 0.00 0.00 49 1011.5
20260509181418 31 262 1.6 3.2 0.00 0.00 0.00 48 1011.6
20260509180914 32 143 0.0 0.0 0.00 0.00 0.00 47 1011.7
20260509180410 30 358 1.6 1.6 0.00 0.00 0.00 49 1011.7
20260509175907 30 249 1.6 1.6 0.00 0.00 0.00 49 1011.7
20260509175403 31 333 1.6 3.2 0.00 0.00 0.00 47 1011.7
20260509174859 31 311 3.2 4.8 0.00 0.00 0.00 49 1011.8
20260509174356 31 197 0.0 0.0 0.00 0.00 0.00 47 1011.8
20260509173851 31 313 1.6 3.2 0.00 0.00 0.00 49 1012.0
20260509173341 31 315 0.0 0.0 0.00 0.00 0.00 49 1011.8
20260509172838 30 265 1.6 1.6 0.00 0.00 0.00 51 1011.9
20260509172334 31 309 1.6 3.2 0.00 0.00 0.00 50 1011.8
20260509171830 30 75 3.2 3.2 0.00 0.00 0.00 51 1011.9
20260509171326 30 107 1.6 1.6 0.00 0.00 0.00 52 1012.0
20260509170823 30 72 4.8 4.8 0.00 0.00 0.00 50 1012.1
20260509170319 30 204 0.0 0.0 0.00 0.00 0.00 54 1012.2
20260509165818 29 332 3.2 4.8 0.00 0.00 0.00 52 1012.0
20260509165313 29 140 0.0 0.0 0.00 0.00 0.00 54 1012.3
20260509164809 29 14 3.2 4.8 0.00 0.00 0.00 53 1012.3
20260509164300 28 247 0.0 0.0 0.00 0.00 0.00 56 1012.3
20260509163756 28 141 0.0 0.0 0.00 0.00 0.00 55 1012.3
20260509163253 28 208 0.0 0.0 0.00 0.00 0.00 59 1012.3
20260509162752 28 17 4.8 4.8 0.00 0.00 0.00 59 1012.2
20260509162245 28 232 0.0 1.6 0.00 0.00 0.00 59 1012.4
20260509161742 28 193 1.6 1.6 0.00 0.00 0.00 60 1012.2
20260509161238 28 13 4.8 4.8 0.00 0.00 0.00 59 1012.1
20260509160733 28 159 1.6 1.6 0.00 0.00 0.00 59 1012.2
20260509160230 28 224 1.6 3.2 0.00 0.00 0.00 61 1012.3
20260509155724 28 195 0.0 1.6 0.00 0.00 0.00 61 1012.2
20260509155222 28 219 1.6 1.6 0.00 0.00 0.00 61 1012.1
20260509154718 28 171 1.6 3.2 0.00 0.00 0.00 60 1012.3
20260509154215 27 204 0.0 0.0 0.00 0.00 0.00 61 1012.1
20260509153712 27 71 0.0 1.6 0.00 0.00 0.00 64 1012.1
20260509153208 26 10 3.2 3.2 0.00 0.00 0.00 64 1012.1
20260509152704 26 276 1.6 1.6 0.00 0.00 0.00 65 1012.1
20260509152201 26 302 3.2 4.8 0.00 0.00 0.00 64 1012.1
20260509151658 26 294 3.2 4.8 0.00 0.00 0.00 62 1012.1
20260509151155 26 240 4.8 9.7 0.00 0.00 0.00 64 1012.0
20260509150653 26 285 0.0 1.6 0.00 0.00 0.00 64 1012.1
20260509150151 26 319 4.8 8.0 0.00 0.00 0.00 63 1012.2
20260509145647 26 246 0.0 0.0 0.00 0.00 0.00 63 1012.4
20260509145142 26 4 3.2 4.8 0.00 0.00 0.00 63 1012.1
20260509144639 26 45 1.6 1.6 0.00 0.00 0.00 65 1012.2
20260509144136 26 106 3.2 3.2 0.00 0.00 0.00 67 1012.2
20260509143633 25 212 1.6 1.6 0.00 0.00 0.00 71 1012.1
20260509143131 25 308 1.6 3.2 0.00 0.00 0.00 73 1012.1
20260509142626 25 188 1.6 1.6 0.00 0.00 0.00 74 1012.2
20260509142123 25 182 0.0 1.6 0.00 0.00 0.00 75 1012.3
20260509141619 25 186 0.0 0.0 0.00 0.00 0.00 76 1012.4
20260509141115 25 113 0.0 0.0 0.00 0.00 0.00 77 1012.3
20260509140612 25 150 0.0 0.0 0.00 0.00 0.00 78 1012.4
20260509140110 24 227 0.0 0.0 0.00 0.00 0.00 79 1012.3
20260509135607 23 163 0.0 1.6 0.00 0.00 0.00 81 1012.2
20260509135105 23 334 3.2 4.8 0.00 0.00 0.00 82 1012.1
20260509134602 23 173 0.0 0.0 0.00 0.00 0.00 84 1012.2
20260509134059 22 183 1.6 1.6 0.00 0.00 0.00 84 1012.2
20260509133556 22 174 3.2 3.2 0.00 0.00 0.00 86 1011.9
20260509133053 21 78 1.6 3.2 0.00 0.00 0.00 87 1012.1
20260509132552 21 241 3.2 3.2 0.00 0.00 0.00 87 1012.1
20260509132050 21 196 3.2 4.8 0.00 0.00 0.00 87 1012.0
20260509131545 21 183 3.2 3.2 0.00 0.00 0.00 88 1012.0
20260509131043 21 41 1.6 3.2 0.00 0.00 0.00 88 1012.0
20260509130538 21 336 3.2 3.2 0.00 0.00 0.00 88 1012.0
20260509130035 21 191 0.0 0.0 0.00 0.00 0.00 89 1012.0
20260509125531 21 190 1.6 1.6 0.00 0.00 0.00 90 1012.0
20260509125028 20 335 3.2 3.2 0.00 0.00 0.00 91 1011.8
20260509124519 20 202 3.2 3.2 0.00 0.00 0.00 93 1011.8
20260509124016 20 96 1.6 3.2 0.00 0.00 0.00 94 1011.8
20260509123514 20 193 1.6 1.6 0.00 0.00 0.00 95 1011.8
20260509123010 19 201 0.0 0.0 0.00 0.00 0.00 96 1011.8
20260509122507 19 198 0.0 0.0 0.00 0.00 0.00 96 1012.0
20260509122004 20 195 0.0 0.0 0.00 0.00 0.00 96 1012.0
20260509121500 19 197 0.0 0.0 0.00 0.00 0.00 96 1011.7
20260509120958 19 200 0.0 0.0 0.00 0.00 0.00 96 1011.8
20260509120456 19 200 0.0 0.0 0.00 0.00 0.00 95 1011.8
20260509115954 19 199 0.0 0.0 0.00 0.00 0.00 95 1011.7
20260509115451 19 199 0.0 0.0 0.00 0.00 0.00 95 1011.5
20260509114948 20 199 0.0 0.0 0.00 0.00 0.00 94 1011.6
20260509114446 20 183 0.0 0.0 0.00 0.00 0.00 94 1011.4
20260509113946 20 191 0.0 0.0 0.00 0.00 0.00 93 1011.5
20260509113442 20 191 0.0 0.0 0.00 0.00 0.00 93 1011.4
20260509112939 20 191 0.0 0.0 0.00 0.00 0.00 92 1011.5
20260509112437 20 209 0.0 0.0 0.00 0.00 0.00 92 1011.3
20260509111933 20 187 0.0 0.0 0.00 0.00 0.00 91 1011.1
20260509111431 20 187 0.0 0.0 0.00 0.00 0.00 91 1010.9
20260509110928 20 197 0.0 0.0 0.00 0.00 0.00 90 1010.9
20260509110424 21 192 0.0 0.0 0.00 0.00 0.00 90 1011.0
20260509105922 21 191 0.0 0.0 0.00 0.00 0.00 90 1010.9
20260509105420 21 186 0.0 0.0 0.00 0.00 0.00 90 1010.9
20260509104917 20 193 0.0 0.0 0.00 0.00 0.00 90 1010.9
20260509104414 20 193 0.0 0.0 0.00 0.00 0.00 91 1010.9
20260509103911 21 184 0.0 0.0 0.00 0.00 0.00 91 1011.0
20260509103408 21 188 0.0 0.0 0.00 0.00 0.00 92 1010.9
20260509102907 21 195 0.0 0.0 0.00 0.00 0.00 91 1010.8
20260509102404 21 187 0.0 0.0 0.00 0.00 0.00 92 1010.9
20260509101859 21 198 0.0 0.0 0.00 0.00 0.00 92 1010.8
20260509101355 21 199 0.0 0.0 0.00 0.00 0.00 92 1010.9
20260509100854 21 227 0.0 0.0 0.00 0.00 0.00 92 1011.0
20260509100350 21 204 1.6 1.6 0.00 0.00 0.00 93 1011.1
20260509095842 21 309 1.6 1.6 0.00 0.00 0.00 93 1010.9
20260509095339 21 237 4.8 9.7 0.00 0.00 0.00 94 1010.3
20260509094836 21 313 3.2 8.0 0.00 0.00 0.00 94 1009.7
20260509094332 21 238 6.4 8.0 0.00 0.00 0.00 94 1009.8
20260509093830 21 168 0.0 1.6 0.00 0.00 0.00 94 1008.9
20260509093327 21 215 3.2 3.2 0.00 0.00 0.00 94 1008.5
20260509092826 21 181 3.2 4.8 0.00 0.00 0.00 94 1008.2
20260509092323 21 186 3.2 3.2 0.00 0.00 0.00 94 1008.1
20260509091821 21 210 3.2 3.2 0.00 0.00 0.00 94 1008.4
20260509091318 21 216 1.6 3.2 0.00 0.00 0.00 93 1008.2
20260509090815 21 201 4.8 8.0 0.00 0.00 0.00 94 1008.3
20260509090312 21 194 4.8 8.0 0.00 0.00 0.00 93 1008.5
20260509085809 21 242 3.2 4.8 0.00 0.00 0.00 93 1008.6
20260509085307 21 188 3.2 3.2 0.00 0.00 0.00 93 1008.6
20260509084803 21 184 1.6 3.2 0.00 0.00 0.00 93 1008.8
20260509084300 21 64 4.8 8.0 0.00 0.00 0.00 93 1008.4
20260509083758 21 240 8.0 16.1 0.00 0.00 0.00 93 1008.4
20260509083254 21 176 4.8 4.8 0.00 0.00 0.00 93 1008.7
20260509082751 21 197 3.2 4.8 0.00 0.00 0.00 93 1008.9
20260509082248 21 189 1.6 1.6 0.00 0.00 0.00 94 1009.0
20260509081744 21 173 3.2 4.8 0.00 0.00 0.00 94 1009.6
20260509081242 21 181 4.8 8.0 0.00 0.00 0.00 95 1010.0
20260509080740 20 166 1.6 1.6 0.00 0.00 0.00 95 1010.1
20260509080237 20 158 6.4 9.7 0.00 0.00 0.00 95 1010.6
20260509075736 20 194 0.0 0.0 0.00 0.00 0.00 94 1010.8
20260509075233 20 190 0.0 0.0 0.00 0.00 0.00 94 1011.2
20260509074729 20 189 0.0 0.0 0.00 0.00 0.00 94 1011.4
20260509074227 21 175 0.0 0.0 0.00 0.00 0.00 94 1011.7
20260509073723 21 198 0.0 0.0 0.00 0.00 0.00 94 1011.4
20260509073219 21 141 0.0 0.0 0.00 0.00 0.00 94 1011.8
20260509072716 21 170 0.0 0.0 0.00 0.00 0.00 95 1012.2
20260509072213 21 135 0.0 0.0 0.00 0.00 0.00 95 1012.2
20260509071710 21 200 0.0 0.0 0.00 0.00 0.00 95 1012.5
20260509071207 21 200 0.0 0.0 0.00 0.00 0.00 95 1012.7
20260509070704 21 185 0.0 0.0 0.00 0.00 0.00 95 1012.8
20260509070200 21 199 0.0 0.0 0.00 0.00 0.00 95 1013.0
20260509065656 20 205 0.0 0.0 0.00 0.00 0.00 95 1013.1
20260509065153 20 193 0.0 0.0 0.00 0.00 0.00 95 1012.7
20260509064650 21 203 0.0 0.0 0.00 0.00 0.00 95 1012.6
20260509064147 21 205 0.0 0.0 0.00 0.00 0.00 95 1012.7
20260509063644 21 204 0.0 0.0 0.00 0.00 0.00 94 1012.4
20260509063140 21 204 0.0 0.0 0.00 0.00 0.00 94 1012.5
20260509062638 21 193 0.0 0.0 0.00 0.00 0.00 94 1012.4
20260509062135 21 201 0.0 0.0 0.00 0.00 0.00 94 1012.7
20260509061631 21 201 0.0 0.0 0.00 0.00 0.00 94 1012.8
20260509061129 21 199 0.0 0.0 0.00 0.00 0.00 94 1012.8
20260509060627 21 190 0.0 0.0 0.00 0.00 0.00 94 1012.9
20260509060122 21 200 0.0 0.0 0.00 0.00 0.00 94 1012.8
20260509055618 21 199 0.0 0.0 0.00 0.00 0.00 95 1012.6
20260509055114 21 192 0.0 0.0 0.00 0.00 0.00 95 1012.8
20260509054611 21 230 0.0 0.0 0.00 0.00 0.00 95 1012.9
20260509054109 20 228 0.0 0.0 0.00 0.00 0.00 95 1012.6
20260509053607 20 206 0.0 0.0 0.00 0.00 0.00 95 1012.6
20260509053104 20 193 0.0 0.0 0.00 0.00 0.00 95 1012.6
20260509052602 20 269 0.0 0.0 0.00 0.00 0.00 94 1012.7
20260509052059 20 112 0.0 0.0 0.00 0.00 0.00 94 1011.8
20260509051557 20 196 0.0 0.0 0.00 0.00 0.00 93 1011.8
20260509051054 20 179 0.0 0.0 0.00 0.00 0.00 92 1011.9
20260509050550 21 180 0.0 0.0 0.00 0.00 0.00 92 1012.1
20260509050047 21 180 0.0 0.0 0.00 0.00 0.00 92 1011.8
20260509045545 21 179 0.0 0.0 0.00 0.00 0.00 91 1011.7
20260509045041 21 175 0.0 0.0 0.00 0.00 0.00 91 1011.8
20260509044539 21 182 0.0 0.0 0.00 0.00 0.00 91 1011.7
20260509044036 21 194 0.0 0.0 0.00 0.00 0.00 91 1011.7
20260509043532 21 190 0.0 0.0 0.00 0.00 0.00 91 1011.8
20260509043028 21 195 0.0 0.0 0.00 0.00 0.00 90 1011.8
20260509042524 21 194 0.0 0.0 0.00 0.00 0.00 90 1011.8
20260509042021 21 184 0.0 0.0 0.00 0.00 0.00 90 1011.9
20260509041517 21 178 0.0 0.0 0.00 0.00 0.00 90 1012.1
20260509041014 21 186 0.0 0.0 0.00 0.00 0.00 90 1012.4
20260509040513 21 182 0.0 0.0 0.00 0.00 0.00 89 1012.2
20260509040005 22 190 0.0 0.0 0.00 0.00 0.00 89 1012.1
20260509035501 22 197 0.0 0.0 0.00 0.00 0.00 88 1012.1
20260509034957 22 191 0.0 0.0 0.00 0.00 0.00 88 1011.9
20260509034456 22 172 0.0 0.0 0.00 0.00 0.00 87 1011.8
20260509033952 22 194 0.0 1.6 0.00 0.00 0.00 87 1011.4
20260509033449 22 190 1.6 1.6 0.00 0.00 0.00 87 1011.5
20260509032946 22 178 1.6 1.6 0.00 0.00 0.00 86 1011.4
20260509032443 22 179 3.2 4.8 0.00 0.00 0.00 86 1011.2
20260509031941 22 171 0.0 0.0 0.00 0.00 0.00 86 1011.2
20260509031438 22 182 0.0 0.0 0.00 0.00 0.00 85 1011.0
20260509030935 22 189 0.0 0.0 0.00 0.00 0.00 85 1010.8
20260509030433 22 178 0.0 0.0 0.00 0.00 0.00 85 1010.8
20260509025930 22 194 1.6 3.2 0.00 0.00 0.00 85 1011.1
20260509025426 22 184 1.6 1.6 0.00 0.00 0.00 85 1010.8
20260509024921 22 162 4.8 8.0 0.00 0.00 0.00 84 1010.8
20260509024417 23 125 1.6 1.6 0.00 0.00 0.00 84 1010.7
20260509023914 23 192 0.0 0.0 0.00 0.00 0.00 84 1010.4
20260509023412 23 176 0.0 0.0 0.00 0.00 0.00 84 1010.6
20260509022908 23 209 0.0 0.0 0.00 0.00 0.00 84 1010.3
20260509022405 23 170 0.0 0.0 0.00 0.00 0.00 84 1010.4
20260509021903 23 167 1.6 1.6 0.00 0.00 0.00 84 1010.4
20260509021400 22 190 0.0 0.0 0.00 0.00 0.00 84 1010.5
20260509020857 22 163 0.0 0.0 0.00 0.00 0.00 84 1010.6
20260509020355 22 181 0.0 0.0 0.00 0.00 0.00 83 1010.4
20260509015852 22 190 0.0 0.0 0.00 0.00 0.00 83 1010.5
20260509015350 22 187 0.0 0.0 0.00 0.00 0.00 83 1010.6
20260509014847 22 188 0.0 0.0 0.00 0.00 0.00 83 1010.5
20260509014344 22 186 0.0 0.0 0.00 0.00 0.00 83 1010.6
20260509013840 23 198 0.0 0.0 0.00 0.00 0.00 83 1010.4
20260509013337 22 175 0.0 0.0 0.00 0.00 0.00 83 1010.6
20260509012832 23 195 0.0 0.0 0.00 0.00 0.00 83 1010.4
20260509012329 23 190 0.0 0.0 0.00 0.00 0.00 83 1010.5
20260509011827 23 192 0.0 0.0 0.00 0.00 0.00 83 1010.3
20260509011324 23 182 0.0 0.0 0.00 0.00 0.00 83 1010.1
20260509010822 23 153 0.0 0.0 0.00 0.00 0.00 83 1010.1
20260509010319 23 195 0.0 0.0 0.00 0.00 0.00 83 1010.0
20260509005816 23 184 0.0 0.0 0.00 0.00 0.00 83 1009.9
20260509005314 23 192 0.0 0.0 0.00 0.00 0.00 82 1010.0
20260509004813 23 188 0.0 0.0 0.00 0.00 0.00 82 1009.7
20260509004305 23 199 0.0 0.0 0.00 0.00 0.00 82 1009.6
20260509003803 23 178 0.0 0.0 0.00 0.00 0.00 81 1009.6
20260509003301 23 201 0.0 1.6 0.00 0.00 0.00 81 1009.5
20260509002757 23 199 0.0 0.0 0.00 0.00 0.00 81 1009.7
20260509002255 23 185 0.0 0.0 0.00 0.00 0.00 80 1009.7
20260509001753 23 187 0.0 0.0 0.00 0.00 0.00 80 1009.7
20260509001248 23 152 3.2 3.2 0.00 0.00 0.00 80 1009.8
20260509000746 23 198 0.0 0.0 0.00 0.00 0.00 80 1009.8
20260509000243 23 166 0.0 0.0 0.00 0.00 0.00 79 1009.9
20260508235740 23 180 0.0 0.0 0.00 0.00 0.00 78 1009.9
20260508235236 23 188 0.0 0.0 0.00 0.00 0.00 78 1010.0
20260508234734 23 173 0.0 0.0 0.00 0.00 0.00 78 1010.0
20260508234230 23 157 0.0 0.0 0.00 0.00 0.00 78 1010.1
20260508233730 23 201 0.0 0.0 0.00 0.00 0.00 78 1010.1
20260508233227 23 165 1.6 3.2 0.00 0.00 0.00 78 1010.1
20260508232724 23 190 1.6 1.6 0.00 0.00 0.00 78 1010.0
20260508232221 23 189 1.6 1.6 0.00 0.00 0.00 78 1010.1
20260508231719 23 190 1.6 3.2 0.00 0.00 0.00 77 1010.3
20260508231215 23 173 1.6 3.2 0.00 0.00 0.00 77 1010.0
20260508230712 23 148 0.0 1.6 0.00 0.00 0.00 77 1010.0
20260508230208 23 161 1.6 1.6 0.00 0.00 0.00 77 1010.0
20260508225707 23 144 1.6 3.2 0.00 0.00 0.00 77 1010.0
20260508225202 23 249 1.6 3.2 0.00 0.00 0.00 76 1009.8
20260508224701 23 184 0.0 1.6 0.00 0.00 0.00 76 1010.0
20260508224157 24 127 0.0 1.6 0.00 0.00 0.00 75 1009.8
20260508223655 24 201 0.0 1.6 0.00 0.00 0.00 74 1010.0
20260508223152 24 209 4.8 4.8 0.00 0.00 0.00 74 1009.9
20260508222650 23 195 3.2 4.8 0.00 0.00 0.00 75 1009.9
20260508222147 23 138 1.6 3.2 0.00 0.00 0.00 75 1010.1
20260508221643 23 165 1.6 1.6 0.00 0.00 0.00 75 1010.3
20260508221139 23 211 1.6 3.2 0.00 0.00 0.00 74 1010.3
20260508220636 23 190 1.6 1.6 0.00 0.00 0.00 74 1010.3
20260508220132 23 199 3.2 3.2 0.00 0.00 0.00 74 1010.3
20260508215629 23 121 4.8 8.0 0.00 0.00 0.00 74 1010.6
20260508215125 23 202 6.4 11.3 0.00 0.00 0.00 72 1010.6
20260508214623 23 116 4.8 8.0 0.00 0.00 0.00 73 1010.6
20260508214120 23 263 4.8 8.0 0.00 0.00 0.00 73 1010.7
20260508213616 22 156 4.8 8.0 0.00 0.00 0.00 74 1010.8
20260508213112 22 126 4.8 4.8 0.00 0.00 0.00 75 1010.9
20260508212609 22 190 1.6 1.6 0.00 0.00 0.00 77 1010.9
20260508212106 22 206 0.0 1.6 0.00 0.00 0.00 76 1011.2